Location: Unspecified
(47.6577°N, 23.5639°E)
Time: 05:06:25
(UTC+02:00)

ISS - Pass Details

Date: 08 February 2017
Orbit: 399 x 408 km, 51.6° (Epoch: 28 February)

Event Time Altitude Azimuth Distance (km) Brightness Sun altitude
Rises 20:26:50 0° 293° (WNW) 2,324 1.7 -28.8°
Reaches altitude 10° 20:28:55 10° 293° (WNW) 1,460 0.4 -29.1°
Enters shadow 20:29:35 15° 292° (WNW) 1,190 -0.2 -29.2°
